Location: Esp�n
(42.4593°N, 0.2047°W)
Time: 07:14:05
(UTC+00:00)

STARLINK-70 - Pass Details

Date: 08 October 2020
Orbit: 441 x 442 km, 53.0° (Epoch: 21 October)

Event Time Altitude Azimuth Distance (km) Brightness Sun altitude
Exits shadow 04:42:58 38° 277° (W) 692 3.6 -16.1°
Maximum altitude 04:43:56 51° 328° (NNW) 560 3.4 -15.9°
Drops below altitude 10° 04:47:22 10° 46° (NE) 1,561 6.7 -15.3°
Sets 04:49:32 0° 51° (NE) 2,433 7.9 -14.9°
